Location: Peebles
(55.6412°N, 3.1714°W)
Time: 09:19:46
(UTC+01:00)

FENGYUN 1C DEB - Pass Details

Date: 11 July 2022
Orbit: 749 x 887 km, 98.1° (Epoch: 08 August)

Event Time Altitude Azimuth Distance (km) Brightness Sun altitude
Rises 02:15:23 0° 16° (NNE) 3,502 ? -11.3°
Reaches altitude 10° 02:17:52 10° 21° (NNE) 2,551 ? -11.2°
Maximum altitude 02:23:30 59° 100° (E) 999 ? -11.0°
Enters shadow 02:28:26 13° 179° (S) 2,283 ? -10.8°
